Simultaneous Nadir Overpasses (SNOs) Predictions

Prediction of SNOs between FY3D and NOAA-19 Satellite Orbit:

Table of predicted SNOs for the next 14.0 days since TLE Epoch: 8/3/2024
Index Date (FY3D) Time (FY3D) Lat,Lon (FY3D) SZA (FY3D ) Date (NOAA-19) Time (NOAA-19) Lat,Lon (NOAA-19) SZA (NOAA-19 ) Distance(km) Time Diff (sec)
1 08/03/2024 20:01:17 76.02,-120.25 58.75 08/03/2024 20:00:02 76.01,-120.29 58.74 1.56 75
2 08/03/2024 20:52:01 -76.02, 47.07 121.25 08/03/2024 20:50:57 -76.02, 47.00 121.25 1.89 64
3 08/03/2024 21:42:48 76.04,-145.69 58.79 08/03/2024 21:41:59 76.05,-145.65 58.79 1.31 49
4 08/03/2024 22:33:32 -76.04, 21.63 121.21 08/03/2024 22:32:54 -76.06, 21.64 121.19 1.85 38
5 08/03/2024 23:24:18 76.06,-171.13 58.82 08/03/2024 23:23:56 76.04,-171.18 58.80 2.50 22
6 08/04/2024 00:15:02 -76.06, -3.81 121.17 08/04/2024 00:14:51 -76.05, -3.88 121.18 2.22 11
7 08/04/2024 01:05:49 76.08, 163.43 58.86 08/04/2024 01:05:53 76.08, 163.46 58.86 0.96 4
8 08/04/2024 01:56:33 -76.08, -29.25 121.14 08/04/2024 01:56:48 -76.08, -29.24 121.13 0.86 15
9 08/04/2024 02:47:20 76.10, 137.99 58.90 08/04/2024 02:47:50 76.11, 138.10 58.91 3.49 30
10 08/04/2024 03:38:04 -76.09, -54.69 121.10 08/04/2024 03:38:46 -76.07, -54.76 121.12 2.87 42
11 08/04/2024 04:28:51 76.11, 112.55 58.94 08/04/2024 04:29:48 76.10, 112.58 58.92 1.65 57
12 08/04/2024 05:19:35 -76.11, -80.13 121.06 08/04/2024 05:20:43 -76.11, -80.12 121.07 0.36 68
13 08/04/2024 06:10:31 76.53, 85.61 59.39 08/04/2024 06:11:37 76.49, 88.57 59.32 77.01 66



Historial Predications of SNOs between FY3D and NOAA-19
